Voltar ao catálogo

TO-108

AtivoRádio AmadorSSO
NORAD 44881·PAYLOAD·🇨🇳 China

Lançado Dec 20, 2019 de Taiyuan Satellite Launch Center

Loading…

Próximas Passagens (próximas 24 horas)

TLE

AtualizadoSource: Space-Track

Época: Sep 14, 2026, 21:40 UTC

1 44881U 19093C   26257.90344179  .00000935  00000-0  11117-3 0  9997
2 44881  97.7460 327.9169 0014168 146.0690 214.1435 14.86634861364744

Acompanhe TO-108 em tempo real com AllMySat

Download on the App Store